When you browse on this site, cookies collect data to enhance your experience and personalize the content and advertising you see.
Visit our Privacy Policy to learn more. By continuing to use the site, you agree to this use of cookies and data.
  • In Denmark
  • List of Countries
  • For 7 days
  • Water Temperature
  • Satellite Maps
  • Weather Map
  • Weather Widgets
  • user-avatar
    Login

    Hourly Weather Kozani

    Today, 19 January, Saturday

    Time Temperature Precipitation Wind Pressure Humidity
    00:00 +3°C° 0 mm 1 mps 703 mmHg 90%
    01:00 +3°C° 0 mm 1 mps 703 mmHg 89%
    02:00 +2°C° 0.1 mm 0 mps 703 mmHg 89%
    03:00 +2°C° 0.1 mm 0 mps 703 mmHg 89%
    04:00 +2°C° 0.1 mm 0 mps 703 mmHg 89%
    05:00 +2°C° 0.1 mm 0 mps 703 mmHg 89%
    06:00 +3°C° 0.1 mm 1 mps 703 mmHg 89%
    07:00 +2°C° 0 mm 0 mps 703 mmHg 89%
    08:00 +3°C° 0.1 mm 0 mps 703 mmHg 91%
    09:00 +3°C° 0.1 mm 0 mps 703 mmHg 94%
    10:00 +4°C° 0.1 mm 0 mps 703 mmHg 96%
    11:00 +5°C° 0.1 mm 1 mps 703 mmHg 96%
    12:00 +6°C° 0.1 mm 1 mps 703 mmHg 96%
    13:00 +5°C° 0 mm 0 mps 703 mmHg 95%
    14:00 +5°C° 0.1 mm 1 mps 703 mmHg 95%
    15:00 +5°C° 0.1 mm 1 mps 703 mmHg 95%
    16:00 +4°C° 0.1 mm 1 mps 702 mmHg 95%
    17:00 +4°C° 0.1 mm 1 mps 702 mmHg 95%
    18:00 +4°C° 0.1 mm 1 mps 702 mmHg 94%
    19:00 +3°C° 0.1 mm 1 mps 702 mmHg 94%
    20:00 +3°C° 0.2 mm 1 mps 702 mmHg 94%
    21:00 +3°C° 0.2 mm 1 mps 702 mmHg 94%
    22:00 +3°C° 0.2 mm 1 mps 702 mmHg 94%
    23:00 +3°C° 0.3 mm 1 mps 702 mmHg 94%

    Tomorrow, 20 January, Sunday

    Time Temperature Precipitation Wind Pressure Humidity
    00:00 +3°C° 0.3 mm 1 mps 702 mmHg 94%
    01:00 +3°C° 0.3 mm 1 mps 702 mmHg 95%
    02:00 +3°C° 0.2 mm 1 mps 702 mmHg 95%
    03:00 +3°C° 0.2 mm 1 mps 702 mmHg 95%
    04:00 +3°C° 0.2 mm 1 mps 701 mmHg 95%
    05:00 +3°C° 0 mm 1 mps 701 mmHg 95%
    06:00 +3°C° 0 mm 1 mps 701 mmHg 95%
    07:00 +3°C° 0 mm 1 mps 701 mmHg 95%
    08:00 +4°C° 0.1 mm 1 mps 701 mmHg 95%
    09:00 +5°C° 0.1 mm 1 mps 702 mmHg 95%
    10:00 +5°C° 0.1 mm 1 mps 702 mmHg 95%
    11:00 +6°C° 0 mm 1 mps 702 mmHg 93%
    12:00 +6°C° 0 mm 1 mps 701 mmHg 92%
    13:00 +7°C° 0 mm 1 mps 701 mmHg 90%
    14:00 +6°C° 0 mm 1 mps 701 mmHg 91%
    15:00 +6°C° 0 mm 1 mps 701 mmHg 92%
    16:00 +5°C° 0 mm 1 mps 701 mmHg 94%
    17:00 +3°C° 0 mm 0 mps 701 mmHg 93%
    18:00 +3°C° 0 mm 0 mps 701 mmHg 93%
    19:00 +2°C° 0 mm 0 mps 701 mmHg 92%
    20:00 +2°C° 0 mm 0 mps 701 mmHg 91%
    21:00 +2°C° 0 mm 0 mps 701 mmHg 90%
    22:00 +2°C° 0 mm 0 mps 701 mmHg 89%
    23:00 +2°C° 0 mm 0 mps 701 mmHg 89%

    Day after tomorrow, 21 January, Monday

    Time Temperature Precipitation Wind Pressure Humidity
    00:00 +2°C° 0 mm 0 mps 701 mmHg 89%
    01:00 +1°C° 0 mm 0 mps 702 mmHg 88%
    02:00 +1°C° 0 mm 0 mps 702 mmHg 88%
    03:00 +1°C° 0 mm 0 mps 701 mmHg 88%
    04:00 +1°C° 0 mm 0 mps 701 mmHg 89%
    05:00 +1°C° 0 mm 0 mps 702 mmHg 88%
    06:00 +1°C° 0 mm 0 mps 702 mmHg 88%
    07:00 +1°C° 0 mm 0 mps 702 mmHg 88%
    08:00 +2°C° 0 mm 0 mps 702 mmHg 85%
    09:00 +4°C° 0 mm 0 mps 703 mmHg 82%
    10:00 +5°C° 0 mm 0 mps 703 mmHg 79%
    11:00 +6°C° 0 mm 0 mps 703 mmHg 78%
    12:00 +6°C° 0 mm 0 mps 703 mmHg 77%
    13:00 +8°C° 0 mm 1 mps 703 mmHg 75%
    14:00 +7°C° 0 mm 1 mps 703 mmHg 78%
    15:00 +6°C° 0 mm 1 mps 702 mmHg 81%
    16:00 +5°C° 0 mm 1 mps 702 mmHg 85%
    17:00 +5°C° 0 mm 1 mps 702 mmHg 86%
    18:00 +4°C° 0 mm 1 mps 703 mmHg 88%
    19:00 +3°C° 0 mm 1 mps 703 mmHg 89%
    20:00 +3°C° 0 mm 1 mps 703 mmHg 90%
    21:00 +3°C° 0 mm 1 mps 703 mmHg 91%
    22:00 +3°C° 0 mm 1 mps 703 mmHg 91%
    23:00 +3°C° 0 mm 1 mps 703 mmHg 92%

    22 January, Tuesday

    Time Temperature Precipitation Wind Pressure Humidity
    00:00 +4°C° 0 mm 1 mps 703 mmHg 92%
    01:00 +4°C° 0 mm 1 mps 703 mmHg 93%
    02:00 +4°C° 0 mm 1 mps 702 mmHg 93%
    03:00 +3°C° 0 mm 1 mps 702 mmHg 94%
    04:00 +3°C° 0 mm 1 mps 702 mmHg 94%
    05:00 +3°C° 0 mm 1 mps 702 mmHg 94%
    06:00 +3°C° 0 mm 1 mps 701 mmHg 94%
    07:00 +3°C° 0 mm 1 mps 701 mmHg 94%
    08:00 +4°C° 0.1 mm 1 mps 701 mmHg 92%
    09:00 +5°C° 0.1 mm 1 mps 701 mmHg 90%
    10:00 +6°C° 0.1 mm 1 mps 701 mmHg 89%
    11:00 +6°C° 0.2 mm 1 mps 701 mmHg 87%
    12:00 +6°C° 0.2 mm 2 mps 700 mmHg 85%
    13:00 +6°C° 0.2 mm 2 mps 699 mmHg 83%
    14:00 +6°C° 0.1 mm 2 mps 699 mmHg 85%
    15:00 +6°C° 0.1 mm 2 mps 698 mmHg 87%
    16:00 +5°C° 0.1 mm 2 mps 697 mmHg 90%
    17:00 +5°C° 0.3 mm 2 mps 697 mmHg 92%
    18:00 +4°C° 0.3 mm 2 mps 697 mmHg 94%
    19:00 +5°C° 0.3 mm 1 mps 696 mmHg 96%
    20:00 +5°C° 0.3 mm 1 mps 696 mmHg 96%
    21:00 +5°C° 0.3 mm 1 mps 696 mmHg 96%
    22:00 +5°C° 0.3 mm 1 mps 695 mmHg 96%
    23:00 +5°C° 0.4 mm 1 mps 695 mmHg 96%

    23 January, Wednesday

    Time Temperature Precipitation Wind Pressure Humidity
    00:00 +4°C° 0.4 mm 2 mps 694 mmHg 96%
    01:00 +4°C° 0.4 mm 2 mps 694 mmHg 97%
    02:00 +4°C° 0.3 mm 2 mps 693 mmHg 97%
    03:00 +3°C° 0.3 mm 2 mps 693 mmHg 97%
    04:00 +3°C° 0.3 mm 2 mps 692 mmHg 97%
    05:00 +3°C° 0 mm 2 mps 693 mmHg 96%
    06:00 +2°C° 0 mm 3 mps 693 mmHg 96%
    07:00 +2°C° 0 mm 3 mps 693 mmHg 96%
    08:00 +3°C° 0 mm 3 mps 693 mmHg 91%
    09:00 +4°C° 0 mm 3 mps 694 mmHg 86%
    10:00 +5°C° 0 mm 3 mps 694 mmHg 81%
    11:00 +7°C° 0 mm 3 mps 694 mmHg 78%
    12:00 +7°C° 0 mm 3 mps 694 mmHg 75%
    13:00 +8°C° 0 mm 3 mps 694 mmHg 72%
    14:00 +7°C° 0 mm 2 mps 693 mmHg 76%
    15:00 +6°C° 0 mm 2 mps 693 mmHg 80%
    16:00 +7°C° 0 mm 1 mps 693 mmHg 84%
    17:00 +6°C° 0 mm 1 mps 693 mmHg 85%
    18:00 +6°C° 0 mm 1 mps 693 mmHg 87%
    19:00 +4°C° 0 mm 0 mps 693 mmHg 89%
    20:00 +4°C° 0 mm 0 mps 693 mmHg 89%
    21:00 +3°C° 0 mm 0 mps 693 mmHg 90%
    22:00 +3°C° 0 mm 0 mps 693 mmHg 90%
    23:00 +4°C° 0 mm 1 mps 692 mmHg 91%

    24 January, Thursday

    Time Temperature Precipitation Wind Pressure Humidity
    00:00 +4°C° 0 mm 1 mps 692 mmHg 92%
    01:00 +3°C° 0 mm 1 mps 691 mmHg 93%
    02:00 +4°C° 0.1 mm 1 mps 691 mmHg 94%
    03:00 +3°C° 0.1 mm 2 mps 690 mmHg 95%
    04:00 +3°C° 0.1 mm 2 mps 690 mmHg 95%
    05:00 +3°C° 0.9 mm 2 mps 690 mmHg 96%
    06:00 +3°C° 0.9 mm 2 mps 689 mmHg 96%
    07:00 +3°C° 0.9 mm 2 mps 689 mmHg 96%
    08:00 +5°C° 0.6 mm 1 mps 689 mmHg 93%
    09:00 +5°C° 0.6 mm 1 mps 689 mmHg 91%
    10:00 +5°C° 0.6 mm 1 mps 688 mmHg 88%
    11:00 +6°C° 0.2 mm 1 mps 688 mmHg 86%
    12:00 +6°C° 0.2 mm 1 mps 688 mmHg 84%
    13:00 +7°C° 0.2 mm 1 mps 687 mmHg 81%
    14:00 +7°C° 0 mm 1 mps 687 mmHg 83%
    15:00 +7°C° 0 mm 1 mps 688 mmHg 85%
    16:00 +6°C° 0 mm 1 mps 688 mmHg 87%
    17:00 +6°C° 0 mm 1 mps 688 mmHg 89%
    18:00 +5°C° 0 mm 1 mps 688 mmHg 91%
    19:00 +5°C° 0 mm 1 mps 688 mmHg 93%
    20:00 +3°C° 0.5 mm 2 mps 688 mmHg 94%
    21:00 +3°C° 0.5 mm 2 mps 688 mmHg 95%
    22:00 +3°C° 0.5 mm 2 mps 688 mmHg 95%
    23:00 +4°C° 0.8 mm 1 mps 688 mmHg 96%
    Show more